Time,TemperatureF,DewpointF,PressureIn,WindDirection,WindDirectionDegrees,WindSpeedMPH,WindSpeedGustMPH,Humidity,HourlyPrecipIn,Conditions,Clouds,dailyrainin,SoftwareType,DateUTC
2013-01-11 00:00:00,44.8,44.3,29.83,SSE,150,1.0,1.0,98,0.06,,,0.08,Wunderground v.1.15,2013-01-11 06:00:00,
2013-01-11 00:10:00,45.0,44.5,29.82,SE,135,1.0,1.0,98,0.00,,,0.08,Wunderground v.1.15,2013-01-11 06:10:00,
2013-01-11 00:20:00,45.1,44.6,29.81,ESE,115,2.0,2.0,98,0.00,,,0.09,Wunderground v.1.15,2013-01-11 06:20:00,
2013-01-11 00:25:00,45.2,44.7,29.81,ESE,103,2.0,2.0,98,0.00,,,0.09,Wunderground v.1.15,2013-01-11 06:25:00,
2013-01-11 00:35:00,45.7,45.2,29.80,ESE,120,2.0,2.0,98,0.00,,,0.09,Wunderground v.1.15,2013-01-11 06:35:00,
2013-01-11 00:40:00,45.8,45.3,29.79,SSE,158,2.0,2.0,98,0.00,,,0.09,Wunderground v.1.15,2013-01-11 06:40:00,
2013-01-11 00:50:00,46.1,45.6,29.78,SE,140,1.0,1.0,98,0.00,,,0.10,Wunderground v.1.15,2013-01-11 06:50:00,
2013-01-11 00:55:00,46.2,45.7,29.78,SSE,148,2.0,2.0,98,0.00,,,0.10,Wunderground v.1.15,2013-01-11 06:55:00,
2013-01-11 01:00:00,46.4,45.9,29.78,ESE,110,2.0,2.0,98,0.05,,,0.11,Wunderground v.1.15,2013-01-11 07:00:00,
2013-01-11 01:10:00,46.9,46.4,29.79,ESE,112,2.0,2.0,98,0.59,,,0.16,Wunderground v.1.15,2013-01-11 07:10:00,
2013-01-11 01:15:00,47.3,46.8,29.80,SE,125,4.0,4.0,98,0.34,,,0.21,Wunderground v.1.15,2013-01-11 07:15:00,
2013-01-11 01:25:00,47.9,47.4,29.79,SE,139,4.0,5.0,98,0.15,,,0.23,Wunderground v.1.15,2013-01-11 07:25:00,
2013-01-11 01:30:00,48.3,47.8,29.79,SSE,166,3.0,4.0,98,0.12,,,0.24,Wunderground v.1.15,2013-01-11 07:30:00,
2013-01-11 01:40:00,49.1,48.6,29.80,SE,135,4.0,5.0,98,0.06,,,0.25,Wunderground v.1.15,2013-01-11 07:40:00,
2013-01-11 01:45:00,49.6,49.1,29.80,SSE,158,5.0,6.0,98,0.06,,,0.25,Wunderground v.1.15,2013-01-11 07:45:00,
2013-01-11 01:55:00,50.1,49.6,29.80,SSW,193,7.0,10.0,98,0.16,,,0.30,Wunderground v.1.15,2013-01-11 07:55:00,
2013-01-11 02:00:00,49.9,49.4,29.80,SSE,167,7.0,7.0,98,0.07,,,0.30,Wunderground v.1.15,2013-01-11 08:00:00,
2013-01-11 02:10:00,49.7,49.2,29.79,SSW,205,6.0,7.0,98,0.06,,,0.31,Wunderground v.1.15,2013-01-11 08:10:00,
2013-01-11 02:15:00,49.7,49.2,29.79,SSE,159,5.0,7.0,98,0.05,,,0.32,Wunderground v.1.15,2013-01-11 08:15:00,
2013-01-11 02:25:00,49.5,48.7,29.78,South,173,5.0,5.0,97,0.05,,,0.32,Wunderground v.1.15,2013-01-11 08:25:00,
2013-01-11 02:30:00,49.3,48.5,29.77,SSE,153,5.0,5.0,97,0.00,,,0.32,Wunderground v.1.15,2013-01-11 08:30:00,
2013-01-11 02:40:00,49.0,48.2,29.76,SE,127,3.0,4.0,97,0.00,,,0.32,Wunderground v.1.15,2013-01-11 08:40:00,
2013-01-11 02:45:00,48.9,48.1,29.75,ESE,115,2.0,4.0,97,0.00,,,0.33,Wunderground v.1.15,2013-01-11 08:45:00,
2013-01-11 02:55:00,48.6,47.8,29.73,SE,134,1.0,2.0,97,0.00,,,0.33,Wunderground v.1.15,2013-01-11 08:55:00,
2013-01-11 03:00:00,48.4,47.6,29.70,SE,139,2.0,2.0,97,0.04,,,0.34,Wunderground v.1.15,2013-01-11 09:00:00,
2013-01-11 03:10:00,47.7,46.6,29.64,NE,56,6.0,9.0,96,0.04,,,0.34,Wunderground v.1.15,2013-01-11 09:10:00,
2013-01-11 03:20:00,48.0,47.5,29.72,SE,136,8.0,8.0,98,0.00,,,0.35,Wunderground v.1.15,2013-01-11 09:20:00,
2013-01-11 03:30:00,49.2,48.7,29.70,SSE,156,5.0,5.0,98,0.00,,,0.35,Wunderground v.1.15,2013-01-11 09:30:00,
2013-01-11 03:40:00,50.0,49.5,29.69,SE,145,5.0,6.0,98,0.00,,,0.35,Wunderground v.1.15,2013-01-11 09:40:00,
2013-01-11 03:45:00,50.2,49.7,29.69,ESE,122,5.0,6.0,98,0.00,,,0.35,Wunderground v.1.15,2013-01-11 09:45:00,
2013-01-11 03:55:00,50.5,50.0,29.70,SSE,163,5.0,7.0,98,0.00,,,0.35,Wunderground v.1.15,2013-01-11 09:55:00,
2013-01-11 04:00:00,50.7,50.2,29.70,SSE,163,5.0,7.0,98,0.00,,,0.35,Wunderground v.1.15,2013-01-11 10:00:00,
2013-01-11 04:10:00,50.8,50.3,29.70,SE,137,5.0,5.0,98,0.00,,,0.35,Wunderground v.1.15,2013-01-11 10:10:00,
2013-01-11 04:15:00,50.9,50.4,29.70,SSE,150,5.0,6.0,98,0.00,,,0.35,Wunderground v.1.15,2013-01-11 10:15:00,
2013-01-11 04:25:00,50.9,50.4,29.70,SSW,195,5.0,5.0,98,0.00,,,0.35,Wunderground v.1.15,2013-01-11 10:25:00,
2013-01-11 04:35:00,50.6,49.8,29.69,South,186,3.0,4.0,97,0.00,,,0.35,Wunderground v.1.15,2013-01-11 10:35:00,
2013-01-11 04:40:00,50.5,49.7,29.69,South,174,3.0,7.0,97,0.00,,,0.35,Wunderground v.1.15,2013-01-11 10:40:00,
2013-01-11 04:50:00,50.3,49.8,29.68,SSE,156,3.0,3.0,98,0.00,,,0.35,Wunderground v.1.15,2013-01-11 10:50:00,
2013-01-11 04:55:00,50.3,49.8,29.68,SSW,194,3.0,3.0,98,0.00,,,0.35,Wunderground v.1.15,2013-01-11 10:55:00,
2013-01-11 05:00:00,50.2,49.7,29.68,South,172,2.0,4.0,98,0.00,,,0.35,Wunderground v.1.15,2013-01-11 11:00:00,
2013-01-11 05:10:00,50.2,49.7,29.68,SSE,153,3.0,3.0,98,0.00,,,0.35,Wunderground v.1.15,2013-01-11 11:10:00,
2013-01-11 05:20:00,50.2,49.7,29.69,SW,232,2.0,2.0,98,0.00,,,0.35,Wunderground v.1.15,2013-01-11 11:20:00,
2013-01-11 05:30:00,50.0,49.5,29.69,SSW,194,2.0,2.0,98,0.00,,,0.35,Wunderground v.1.15,2013-01-11 11:30:00,
2013-01-11 05:40:00,49.7,49.2,29.69,SSW,201,2.0,2.0,98,0.00,,,0.35,Wunderground v.1.15,2013-01-11 11:40:00,
2013-01-11 05:45:00,49.6,49.1,29.69,SW,214,3.0,3.0,98,0.00,,,0.35,Wunderground v.1.15,2013-01-11 11:45:00,
2013-01-11 05:55:00,49.1,48.3,29.69,SSW,210,2.0,2.0,97,0.00,,,0.35,Wunderground v.1.15,2013-01-11 11:55:00,
2013-01-11 06:00:00,49.1,48.6,29.70,SSW,209,2.0,2.0,98,0.00,,,0.35,Wunderground v.1.15,2013-01-11 12:00:00,
2013-01-11 06:10:00,49.1,48.6,29.70,SSW,205,2.0,2.0,98,0.00,,,0.35,Wunderground v.1.15,2013-01-11 12:10:00,
2013-01-11 06:15:00,49.1,48.6,29.70,South,174,2.0,2.0,98,0.00,,,0.35,Wunderground v.1.15,2013-01-11 12:15:00,
2013-01-11 06:25:00,48.9,48.4,29.71,SSE,162,3.0,3.0,98,0.00,,,0.35,Wunderground v.1.15,2013-01-11 12:25:00,
2013-01-11 06:35:00,48.5,47.7,29.72,SSW,208,3.0,4.0,97,0.00,,,0.35,Wunderground v.1.15,2013-01-11 12:35:00,
2013-01-11 06:45:00,48.0,47.2,29.74,SSW,209,4.0,4.0,97,0.00,,,0.35,Wunderground v.1.15,2013-01-11 12:45:00,
2013-01-11 06:55:00,47.8,47.0,29.73,WSW,256,5.0,5.0,97,0.00,,,0.35,Wunderground v.1.15,2013-01-11 12:55:00,
2013-01-11 07:00:00,47.8,47.0,29.73,WSW,245,7.0,7.0,97,0.00,,,0.35,Wunderground v.1.15,2013-01-11 13:00:00,
2013-01-11 07:05:00,47.6,46.8,29.74,WSW,252,8.0,8.0,97,0.00,,,0.35,Wunderground v.1.15,2013-01-11 13:05:00,
2013-01-11 07:15:00,47.1,46.0,29.74,WSW,238,8.0,8.0,96,0.00,,,0.35,Wunderground v.1.15,2013-01-11 13:15:00,
2013-01-11 07:20:00,46.8,45.7,29.75,WSW,239,7.0,7.0,96,0.00,,,0.35,Wunderground v.1.15,2013-01-11 13:20:00,
2013-01-11 07:30:00,46.3,44.9,29.76,SW,232,5.0,6.0,95,0.00,,,0.35,Wunderground v.1.15,2013-01-11 13:30:00,
2013-01-11 07:35:00,46.2,45.1,29.76,SW,229,6.0,6.0,96,0.00,,,0.35,Wunderground v.1.15,2013-01-11 13:35:00,
2013-01-11 07:45:00,45.9,44.8,29.77,SSW,197,5.0,7.0,96,0.00,,,0.35,Wunderground v.1.15,2013-01-11 13:45:00,
2013-01-11 07:50:00,45.7,44.6,29.77,SW,225,4.0,4.0,96,0.00,,,0.35,Wunderground v.1.15,2013-01-11 13:50:00,
2013-01-11 08:00:00,45.5,44.4,29.78,SW,224,7.0,7.0,96,0.00,,,0.35,Wunderground v.1.15,2013-01-11 14:00:00,
2013-01-11 08:10:00,45.3,44.2,29.78,SSW,195,6.0,6.0,96,0.00,,,0.35,Wunderground v.1.15,2013-01-11 14:10:00,
2013-01-11 08:20:00,45.2,44.1,29.78,SW,225,4.0,4.0,96,0.00,,,0.35,Wunderground v.1.15,2013-01-11 14:20:00,
2013-01-11 08:30:00,45.0,43.9,29.78,SW,229,3.0,4.0,96,0.00,,,0.35,Wunderground v.1.15,2013-01-11 14:30:00,
2013-01-11 08:40:00,45.0,44.2,29.80,SW,220,5.0,5.0,97,0.00,,,0.35,Wunderground v.1.15,2013-01-11 14:40:00,
2013-01-11 08:50:00,44.9,44.1,29.79,SW,232,5.0,5.0,97,0.00,,,0.35,Wunderground v.1.15,2013-01-11 14:50:00,
2013-01-11 09:00:00,44.9,44.1,29.78,SW,235,4.0,4.0,97,0.00,,,0.35,Wunderground v.1.15,2013-01-11 15:00:00,
2013-01-11 09:10:00,45.0,44.2,29.79,SW,225,3.0,3.0,97,0.00,,,0.35,Wunderground v.1.15,2013-01-11 15:10:00,
2013-01-11 09:20:00,45.2,44.4,29.79,SSW,211,4.0,4.0,97,0.00,,,0.35,Wunderground v.1.15,2013-01-11 15:20:00,
2013-01-11 09:25:00,45.3,44.5,29.80,SW,222,4.0,4.0,97,0.00,,,0.35,Wunderground v.1.15,2013-01-11 15:25:00,
2013-01-11 09:35:00,45.5,44.7,29.80,SW,225,4.0,4.0,97,0.00,,,0.35,Wunderground v.1.15,2013-01-11 15:35:00,
2013-01-11 09:40:00,45.7,44.9,29.80,SW,217,3.0,4.0,97,0.00,,,0.35,Wunderground v.1.15,2013-01-11 15:40:00,
2013-01-11 09:50:00,45.9,45.1,29.80,SW,215,2.0,2.0,97,0.00,,,0.35,Wunderground v.1.15,2013-01-11 15:50:00,
2013-01-11 09:55:00,46.0,45.2,29.80,South,191,2.0,2.0,97,0.00,,,0.35,Wunderground v.1.15,2013-01-11 15:55:00,
2013-01-11 10:00:00,46.0,45.2,29.81,SW,218,2.0,4.0,97,0.00,,,0.35,Wunderground v.1.15,2013-01-11 16:00:00,
2013-01-11 10:10:00,46.2,45.4,29.81,South,188,3.0,3.0,97,0.00,,,0.35,Wunderground v.1.15,2013-01-11 16:10:00,
2013-01-11 10:20:00,46.4,45.6,29.80,SSW,205,4.0,4.0,97,0.00,,,0.35,Wunderground v.1.15,2013-01-11 16:20:00,
2013-01-11 10:25:00,46.5,45.7,29.80,SSW,197,3.0,5.0,97,0.00,,,0.35,Wunderground v.1.15,2013-01-11 16:25:00,
2013-01-11 10:35:00,46.8,46.0,29.79,SSE,166,3.0,4.0,97,0.00,,,0.35,Wunderground v.1.15,2013-01-11 16:35:00,
2013-01-11 10:45:00,46.8,46.0,29.79,SW,218,4.0,4.0,97,0.00,,,0.35,Wunderground v.1.15,2013-01-11 16:45:00,
2013-01-11 10:55:00,46.8,46.0,29.79,SW,219,5.0,5.0,97,0.00,,,0.35,Wunderground v.1.15,2013-01-11 16:55:00,
2013-01-11 11:00:00,46.8,46.0,29.79,SW,225,5.0,6.0,97,0.00,,,0.35,Wunderground v.1.15,2013-01-11 17:00:00,
2013-01-11 11:10:00,47.1,46.3,29.78,SSW,198,4.0,5.0,97,0.00,,,0.35,Wunderground v.1.15,2013-01-11 17:10:00,
2013-01-11 11:15:00,47.4,46.6,29.78,South,186,4.0,5.0,97,0.00,,,0.35,Wunderground v.1.15,2013-01-11 17:15:00,
2013-01-11 11:25:00,47.9,46.8,29.78,SSE,150,5.0,5.0,96,0.00,,,0.35,Wunderground v.1.15,2013-01-11 17:25:00,
2013-01-11 11:30:00,48.3,47.2,29.77,SSW,204,5.0,5.0,96,0.00,,,0.35,Wunderground v.1.15,2013-01-11 17:30:00,
2013-01-11 11:40:00,48.7,47.3,29.77,South,190,4.0,4.0,95,0.00,,,0.35,Wunderground v.1.15,2013-01-11 17:40:00,
2013-01-11 11:45:00,48.7,47.1,29.77,SE,142,4.0,4.0,94,0.00,,,0.35,Wunderground v.1.15,2013-01-11 17:45:00,
2013-01-11 11:55:00,49.0,47.6,29.77,SW,219,3.0,5.0,95,0.00,,,0.35,Wunderground v.1.15,2013-01-11 17:55:00,
2013-01-11 12:00:00,49.0,47.3,29.76,SW,214,4.0,4.0,94,0.00,,,0.35,Wunderground v.1.15,2013-01-11 18:00:00,
2013-01-11 12:10:00,48.8,47.2,29.77,SSW,194,4.0,4.0,94,0.00,,,0.35,Wunderground v.1.15,2013-01-11 18:10:00,
2013-01-11 12:15:00,48.8,47.2,29.76,SSW,197,3.0,4.0,94,0.00,,,0.35,Wunderground v.1.15,2013-01-11 18:15:00,
2013-01-11 12:25:00,48.9,47.2,29.76,South,170,3.0,3.0,94,0.00,,,0.35,Wunderground v.1.15,2013-01-11 18:25:00,
2013-01-11 12:30:00,49.1,47.4,29.75,SE,146,3.0,7.0,94,0.00,,,0.35,Wunderground v.1.15,2013-01-11 18:30:00,
2013-01-11 12:40:00,49.9,48.2,29.74,SSW,201,4.0,4.0,94,0.00,,,0.35,Wunderground v.1.15,2013-01-11 18:40:00,
2013-01-11 12:45:00,50.8,48.8,29.73,SSE,150,4.0,6.0,93,0.00,,,0.35,Wunderground v.1.15,2013-01-11 18:45:00,
2013-01-11 12:55:00,50.8,48.3,29.74,SSW,201,5.0,5.0,91,0.00,,,0.35,Wunderground v.1.15,2013-01-11 18:55:00,
2013-01-11 13:00:00,50.7,48.2,29.75,South,180,5.0,5.0,91,0.00,,,0.35,Wunderground v.1.15,2013-01-11 19:00:00,
2013-01-11 13:10:00,50.6,48.4,29.76,South,187,5.0,10.0,92,0.00,,,0.35,Wunderground v.1.15,2013-01-11 19:10:00,
2013-01-11 13:15:00,50.6,48.4,29.75,SSW,198,5.0,10.0,92,0.00,,,0.35,Wunderground v.1.15,2013-01-11 19:15:00,
2013-01-11 13:25:00,51.1,48.6,29.74,South,181,4.0,9.0,91,0.00,,,0.35,Wunderground v.1.15,2013-01-11 19:25:00,
2013-01-11 13:30:00,51.2,48.7,29.75,SW,216,4.0,4.0,91,0.00,,,0.35,Wunderground v.1.15,2013-01-11 19:30:00,
2013-01-11 13:40:00,51.2,48.4,29.75,SW,219,5.0,5.0,90,0.00,,,0.35,Wunderground v.1.15,2013-01-11 19:40:00,
2013-01-11 13:45:00,51.2,48.4,29.75,SSW,212,4.0,5.0,90,0.00,,,0.35,Wunderground v.1.15,2013-01-11 19:45:00,
2013-01-11 13:55:00,51.3,48.5,29.75,SSE,167,4.0,6.0,90,0.00,,,0.35,Wunderground v.1.15,2013-01-11 19:55:00,
2013-01-11 14:00:00,51.4,48.6,29.74,SSW,193,4.0,4.0,90,0.00,,,0.35,Wunderground v.1.15,2013-01-11 20:00:00,
2013-01-11 14:10:00,52.0,49.2,29.74,South,183,4.0,4.0,90,0.00,,,0.35,Wunderground v.1.15,2013-01-11 20:10:00,
2013-01-11 14:20:00,53.0,49.8,29.74,SSE,152,5.0,5.0,89,0.00,,,0.35,Wunderground v.1.15,2013-01-11 20:20:00,
2013-01-11 14:30:00,53.6,49.5,29.73,SSE,149,5.0,6.0,86,0.00,,,0.35,Wunderground v.1.15,2013-01-11 20:30:00,
2013-01-11 14:35:00,53.7,49.6,29.72,SSE,165,5.0,7.0,86,0.00,,,0.35,Wunderground v.1.15,2013-01-11 20:35:00,
2013-01-11 14:45:00,53.2,49.4,29.73,SSE,159,5.0,5.0,87,0.00,,,0.35,Wunderground v.1.15,2013-01-11 20:45:00,
2013-01-11 14:50:00,53.3,49.8,29.73,SSE,155,5.0,5.0,88,0.00,,,0.35,Wunderground v.1.15,2013-01-11 20:50:00,
2013-01-11 15:00:00,53.6,49.8,29.72,SSE,155,5.0,5.0,87,0.00,,,0.35,Wunderground v.1.15,2013-01-11 21:00:00,
2013-01-11 15:10:00,53.7,49.9,29.73,SSE,163,5.0,7.0,87,0.00,,,0.35,Wunderground v.1.15,2013-01-11 21:10:00,
2013-01-11 15:20:00,53.2,49.4,29.72,SE,142,5.0,5.0,87,0.00,,,0.35,Wunderground v.1.15,2013-01-11 21:20:00,
2013-01-11 15:30:00,52.9,49.7,29.72,SE,140,4.0,4.0,89,0.00,,,0.35,Wunderground v.1.15,2013-01-11 21:30:00,
2013-01-11 15:40:00,52.8,49.6,29.71,SSE,149,5.0,5.0,89,0.00,,,0.35,Wunderground v.1.15,2013-01-11 21:40:00,
2013-01-11 15:50:00,52.9,49.7,29.72,SW,228,6.0,6.0,89,0.00,,,0.35,Wunderground v.1.15,2013-01-11 21:50:00,
2013-01-11 15:55:00,52.9,49.7,29.71,SSE,152,6.0,6.0,89,0.00,,,0.35,Wunderground v.1.15,2013-01-11 21:55:00,
2013-01-11 16:00:00,52.9,49.7,29.71,SSE,150,6.0,6.0,89,0.00,,,0.35,Wunderground v.1.15,2013-01-11 22:00:00,
2013-01-11 16:10:00,52.9,49.4,29.71,SSE,163,6.0,7.0,88,0.00,,,0.35,Wunderground v.1.15,2013-01-11 22:10:00,
2013-01-11 16:20:00,52.8,49.3,29.71,SSE,156,7.0,7.0,88,0.00,,,0.35,Wunderground v.1.15,2013-01-11 22:20:00,
2013-01-11 16:25:00,52.7,49.2,29.72,SSE,159,5.0,7.0,88,0.00,,,0.35,Wunderground v.1.15,2013-01-11 22:25:00,
2013-01-11 16:35:00,52.5,49.4,29.71,SW,221,6.0,8.0,89,0.00,,,0.35,Wunderground v.1.15,2013-01-11 22:35:00,
2013-01-11 16:40:00,52.4,49.3,29.70,SSE,163,7.0,7.0,89,0.00,,,0.35,Wunderground v.1.15,2013-01-11 22:40:00,
2013-01-11 16:50:00,52.2,49.1,29.71,SSW,194,6.0,6.0,89,0.00,,,0.35,Wunderground v.1.15,2013-01-11 22:50:00,
2013-01-11 16:55:00,52.0,48.9,29.70,SSE,147,5.0,6.0,89,0.00,,,0.35,Wunderground v.1.15,2013-01-11 22:55:00,
2013-01-11 17:00:00,51.9,48.8,29.71,SSE,153,5.0,5.0,89,0.00,,,0.35,Wunderground v.1.15,2013-01-11 23:00:00,
2013-01-11 17:10:00,51.7,48.6,29.69,ESE,113,6.0,6.0,89,0.00,,,0.35,Wunderground v.1.15,2013-01-11 23:10:00,
2013-01-11 17:15:00,51.6,48.5,29.70,SSE,149,6.0,9.0,89,0.00,,,0.35,Wunderground v.1.15,2013-01-11 23:15:00,
2013-01-11 17:25:00,51.6,48.5,29.70,SE,133,7.0,7.0,89,0.00,,,0.35,Wunderground v.1.15,2013-01-11 23:25:00,
2013-01-11 17:35:00,51.3,48.2,29.70,SSE,153,7.0,7.0,89,0.00,,,0.35,Wunderground v.1.15,2013-01-11 23:35:00,
2013-01-11 17:45:00,51.2,48.1,29.71,South,172,7.0,8.0,89,0.00,,,0.35,Wunderground v.1.15,2013-01-11 23:45:00,
2013-01-11 17:55:00,51.0,47.9,29.71,SSE,153,6.0,7.0,89,0.00,,,0.35,Wunderground v.1.15,2013-01-11 23:55:00,
2013-01-11 18:00:00,50.9,47.8,29.72,SSE,147,6.0,7.0,89,0.00,,,0.35,Wunderground v.1.15,2013-01-12 00:00:00,
2013-01-11 18:10:00,50.7,47.6,29.71,SSW,205,6.0,6.0,89,0.00,,,0.35,Wunderground v.1.15,2013-01-12 00:10:00,
2013-01-11 18:20:00,50.4,47.3,29.71,South,172,6.0,6.0,89,0.00,,,0.35,Wunderground v.1.15,2013-01-12 00:20:00,
2013-01-11 18:30:00,50.4,47.6,29.71,SSE,167,6.0,7.0,90,0.00,,,0.35,Wunderground v.1.15,2013-01-12 00:30:00,
2013-01-11 18:40:00,50.4,47.6,29.72,ESE,111,7.0,12.0,90,0.00,,,0.35,Wunderground v.1.15,2013-01-12 00:40:00,
2013-01-11 18:45:00,50.4,47.3,29.72,SSE,167,7.0,12.0,89,0.00,,,0.35,Wunderground v.1.15,2013-01-12 00:45:00,
2013-01-11 18:55:00,50.6,47.5,29.72,SSW,210,7.0,9.0,89,0.00,,,0.35,Wunderground v.1.15,2013-01-12 00:55:00,
2013-01-11 19:00:00,50.6,47.5,29.71,SSE,152,7.0,7.0,89,0.00,,,0.35,Wunderground v.1.15,2013-01-12 01:00:00,
2013-01-11 19:10:00,50.8,47.7,29.71,SSE,167,7.0,8.0,89,0.00,,,0.35,Wunderground v.1.15,2013-01-12 01:10:00,
2013-01-11 19:15:00,50.9,47.8,29.71,SSE,166,7.0,8.0,89,0.00,,,0.35,Wunderground v.1.15,2013-01-12 01:15:00,
2013-01-11 19:25:00,51.1,48.0,29.70,South,179,7.0,11.0,89,0.00,,,0.35,Wunderground v.1.15,2013-01-12 01:25:00,
2013-01-11 19:35:00,51.2,47.8,29.70,SSE,156,7.0,10.0,88,0.00,,,0.35,Wunderground v.1.15,2013-01-12 01:35:00,
2013-01-11 19:45:00,51.3,47.9,29.70,SSE,158,8.0,9.0,88,0.00,,,0.35,Wunderground v.1.15,2013-01-12 01:45:00,
2013-01-11 19:50:00,51.3,47.9,29.70,South,191,7.0,7.0,88,0.00,,,0.35,Wunderground v.1.15,2013-01-12 01:50:00,
2013-01-11 20:00:00,51.2,47.8,29.70,South,172,7.0,8.0,88,0.00,,,0.35,Wunderground v.1.15,2013-01-12 02:00:00,
2013-01-11 20:05:00,51.0,47.6,29.70,SSE,160,7.0,14.0,88,0.00,,,0.35,Wunderground v.1.15,2013-01-12 02:05:00,
2013-01-11 20:15:00,50.6,47.5,29.70,SSE,156,7.0,8.0,89,0.00,,,0.35,Wunderground v.1.15,2013-01-12 02:15:00,
2013-01-11 20:20:00,50.6,47.5,29.70,SSE,164,7.0,7.0,89,0.00,,,0.35,Wunderground v.1.15,2013-01-12 02:20:00,
2013-01-11 20:30:00,50.9,47.8,29.69,SW,215,7.0,15.0,89,0.00,,,0.35,Wunderground v.1.15,2013-01-12 02:30:00,
2013-01-11 20:40:00,51.0,47.6,29.69,SSW,204,8.0,9.0,88,0.00,,,0.35,Wunderground v.1.15,2013-01-12 02:40:00,
2013-01-11 20:50:00,51.0,47.6,29.69,SSE,147,7.0,7.0,88,0.00,,,0.35,Wunderground v.1.15,2013-01-12 02:50:00,
2013-01-11 20:55:00,51.0,47.6,29.69,SSE,152,8.0,9.0,88,0.00,,,0.35,Wunderground v.1.15,2013-01-12 02:55:00,
2013-01-11 21:00:00,51.0,47.6,29.69,South,174,8.0,8.0,88,0.00,,,0.35,Wunderground v.1.15,2013-01-12 03:00:00,
2013-01-11 21:10:00,51.1,47.7,29.69,South,186,8.0,11.0,88,0.00,,,0.35,Wunderground v.1.15,2013-01-12 03:10:00,
2013-01-11 21:15:00,51.2,47.8,29.69,South,186,8.0,11.0,88,0.00,,,0.35,Wunderground v.1.15,2013-01-12 03:15:00,
2013-01-11 21:25:00,51.3,47.9,29.69,SSW,193,8.0,9.0,88,0.00,,,0.35,Wunderground v.1.15,2013-01-12 03:25:00,
2013-01-11 21:30:00,51.1,47.7,29.69,South,187,8.0,9.0,88,0.00,,,0.35,Wunderground v.1.15,2013-01-12 03:30:00,
2013-01-11 21:40:00,51.0,47.6,29.69,WSW,246,8.0,8.0,88,0.00,,,0.35,Wunderground v.1.15,2013-01-12 03:40:00,
2013-01-11 21:45:00,50.9,47.5,29.69,SSE,148,8.0,11.0,88,0.00,,,0.35,Wunderground v.1.15,2013-01-12 03:45:00,
2013-01-11 21:55:00,50.9,47.8,29.70,SSW,208,9.0,15.0,89,0.00,,,0.35,Wunderground v.1.15,2013-01-12 03:55:00,
2013-01-11 22:00:00,50.8,47.7,29.70,SSE,167,8.0,8.0,89,0.00,,,0.35,Wunderground v.1.15,2013-01-12 04:00:00,
2013-01-11 22:05:00,50.8,47.7,29.70,SE,146,8.0,8.0,89,0.00,,,0.35,Wunderground v.1.15,2013-01-12 04:05:00,
2013-01-11 22:15:00,50.6,47.5,29.70,SSE,160,7.0,7.0,89,0.00,,,0.35,Wunderground v.1.15,2013-01-12 04:15:00,
2013-01-11 22:20:00,50.4,47.3,29.70,SE,146,7.0,8.0,89,0.00,,,0.35,Wunderground v.1.15,2013-01-12 04:20:00,
2013-01-11 22:30:00,50.4,47.6,29.70,South,183,7.0,7.0,90,0.00,,,0.35,Wunderground v.1.15,2013-01-12 04:30:00,
2013-01-11 22:35:00,50.5,47.7,29.71,SSW,200,7.0,7.0,90,0.00,,,0.35,Wunderground v.1.15,2013-01-12 04:35:00,
2013-01-11 22:45:00,50.6,47.5,29.70,SSE,167,7.0,7.0,89,0.00,,,0.35,Wunderground v.1.15,2013-01-12 04:45:00,
2013-01-11 22:50:00,50.6,47.8,29.70,SSE,162,7.0,11.0,90,0.00,,,0.35,Wunderground v.1.15,2013-01-12 04:50:00,
2013-01-11 23:00:00,50.4,47.6,29.71,South,190,6.0,6.0,90,0.00,,,0.35,Wunderground v.1.15,2013-01-12 05:00:00,
2013-01-11 23:10:00,50.4,47.6,29.71,SSW,194,7.0,7.0,90,0.00,,,0.00,Wunderground v.1.15,2013-01-12 05:10:00,
2013-01-11 23:20:00,50.4,47.6,29.72,South,184,6.0,8.0,90,0.00,,,0.00,Wunderground v.1.15,2013-01-12 05:20:00,
2013-01-11 23:25:00,50.4,47.6,29.72,WSW,240,7.0,8.0,90,0.00,,,0.00,Wunderground v.1.15,2013-01-12 05:25:00,
2013-01-11 23:35:00,50.3,47.5,29.72,SSW,193,6.0,7.0,90,0.00,,,0.00,Wunderground v.1.15,2013-01-12 05:35:00,
2013-01-11 23:45:00,50.2,47.7,29.72,South,184,6.0,8.0,91,0.00,,,0.00,Wunderground v.1.15,2013-01-12 05:45:00,
2013-01-11 23:55:00,50.2,47.7,29.72,SSE,160,6.0,6.0,91,0.00,,,0.00,Wunderground v.1.15,2013-01-12 05:55:00,